Weather History for YSCB - October, 2013

Change the Weather History Date:

Sunday, October 20, 2013

  Actual Average Record
Temperature  
Mean Temperature 58 °F -  
Max Temperature 80 °F 71 °F - ()
Min Temperature 36 °F 46 °F - ()
Degree Days  
Heating Degree Days 7    
Growing Degree Days 8 (Base 50)    
Moisture  
Dew Point 41 °F    
Average Humidity 54    
Maximum Humidity 100    
Minimum Humidity 15    
Precipitation  
Precipitation 0.00 in 0.09 in - ()
Sea Level Pressure  
Sea Level Pressure 30.10 in    
Wind  
Wind Speed 6 mph ()    
Max Wind Speed 17 mph    
Max Gust Speed -    
Visibility 5.3 miles    
Events      
T = Trace of Precipitation, MM = Missing Value Source: Averaged Metar Reports

Daily Weather History Graph

Daily Weather History Graph

Search for Another Location

Airport or City:

Trip Planner

Search our weather history database for the weather conditions in past years. The results will help you decide how hot, cold, wet, or windy it might be!

Date:

Astronomy

Oct. 20, 2013 Rise Set
Actual Time 6:14 AM AEDT 7:22 PM AEDT
Civil Twilight 5:48 AM AEDT 7:48 PM AEDT
Nautical Twilight 5:17 AM AEDT 8:19 PM AEDT
Astronomical Twilight 4:44 AM AEDT 8:52 PM AEDT
Moon 8:39 PM AEDT (10/20) 6:45 AM AEDT (10/20)
Length of Visible Light 14h 00m
Length of Day
13h 07m
Full, 99% of the Moon is Illuminated
Oct 20
Full
Oct 27
Last Quarter
Nov 3
New
Nov 10
First Quarter
Nov 18
Full

Hourly Weather History & Observations

Time (AEDT) Temp. Windchill Dew Point Humidity Pressure Visibility Wind Dir Wind Speed Gust Speed Precip Events Conditions
12:00 AM 49 °F - 40 °F 61% 30.19 in - South 4.6 mph - -  
12:00 AM 48.2 °F - 39.2 °F 71% 30.18 in 6.2 mi South 4.6 mph - N/A   Unknown
12:30 AM 46.4 °F 45.2 °F 37.4 °F 71% 30.21 in 6.2 mi SSE 3.5 mph - N/A   Unknown
1:00 AM 44.6 °F 42.2 °F 37.4 °F 76% 30.18 in 6.2 mi East 4.6 mph - N/A   Unknown
1:30 AM 44.6 °F 41.4 °F 37.4 °F 76% 30.18 in 6.2 mi NNW 5.8 mph - N/A   Unknown
2:00 AM 44 °F - 39 °F 76% 30.17 in - Calm Calm - -  
2:00 AM 44.6 °F - 39.2 °F 81% 30.18 in 6.2 mi Calm Calm - N/A   Unknown
2:30 AM 39.2 °F - 33.8 °F 81% 30.18 in 6.2 mi Calm Calm - N/A   Unknown
3:00 AM 42.8 °F - 37.4 °F 81% 30.15 in 6.2 mi Calm Calm - N/A   Unknown
3:30 AM 41.0 °F - 35.6 °F 81% 30.15 in 6.2 mi Calm Calm - N/A   Unknown
4:00 AM 42.8 °F 40.1 °F 41.0 °F 93% 30.15 in 6.2 mi SE 4.6 mph - N/A   Unknown
4:30 AM 41.0 °F 36.4 °F 37.4 °F 87% 30.15 in 6.2 mi North 6.9 mph - N/A   Unknown
5:00 AM 37 °F - 34 °F 84% 30.16 in - SSW 4.6 mph - -  
5:00 AM 37.4 °F 33.8 °F 33.8 °F 87% 30.15 in 5.0 mi SSW 4.6 mph - N/A   Unknown
5:30 AM 39.2 °F 34.2 °F 39.2 °F 100% 30.15 in 5.6 mi SE 6.9 mph - N/A   Unknown
6:00 AM 37 °F - 34 °F 84% 30.15 in - ESE 2.3 mph - -  
6:00 AM 37.4 °F - 33.8 °F 87% 30.15 in 3.1 mi ESE 2.3 mph - N/A   Clear
6:30 AM 37.4 °F 33.8 °F 35.6 °F 93% 30.15 in 3.1 mi NNE 4.6 mph - N/A   Clear
7:00 AM 39.2 °F - 37.4 °F 93% 30.18 in 3.1 mi Calm Calm - N/A   Partly Cloudy
7:30 AM 42.8 °F 41.1 °F 41.0 °F 93% 30.18 in 3.1 mi North 3.5 mph - N/A   Partly Cloudy
8:00 AM 46 °F - 43 °F 84% 30.18 in - North 3.5 mph - -  
8:00 AM 46.4 °F 45.2 °F 42.8 °F 87% 30.18 in 3.7 mi North 3.5 mph - N/A   Partly Cloudy
8:30 AM 50.0 °F - 44.6 °F 82% 30.18 in 3.7 mi NNE 4.6 mph - N/A   Partly Cloudy
9:00 AM 56 °F - 46 °F 59% 30.18 in - Calm Calm - -  
9:00 AM 57.2 °F - 46.4 °F 67% 30.18 in 3.7 mi Calm Calm - N/A   Partly Cloudy
9:30 AM 60.8 °F - 44.6 °F 55% 30.18 in 3.7 mi NW 3.5 mph - N/A   Scattered Clouds
10:00 AM 64.4 °F - 44.6 °F 49% 30.15 in 3.7 mi WNW 3.5 mph - N/A   Scattered Clouds
10:30 AM 68.0 °F - 44.6 °F 43% 30.15 in 3.7 mi NNW 8.1 mph - N/A   Scattered Clouds
11:00 AM 71 °F - 42 °F 23% 30.13 in - NW 10.4 mph - -  
11:00 AM 69.8 °F - 41.0 °F 35% 30.12 in 4.3 mi NW 10.4 mph - N/A   Scattered Clouds
11:30 AM 71.6 °F - 44.6 °F 38% 30.12 in 5.0 mi NW 11.5 mph - N/A   Scattered Clouds
12:00 PM 74 °F - 43 °F 22% 30.12 in - NW 10.4 mph - -  
12:00 PM 73.4 °F - 42.8 °F 33% 30.12 in 5.0 mi NW 10.4 mph - N/A   Scattered Clouds
12:30 PM 73.4 °F - 42.8 °F 33% 30.09 in 5.0 mi NNW 12.7 mph - N/A   Mostly Cloudy
1:00 PM 75.2 °F - 42.8 °F 31% 30.09 in 5.6 mi NW 15.0 mph - N/A   Mostly Cloudy
1:30 PM 77.0 °F - 44.6 °F 32% 30.06 in 5.6 mi NNW 15.0 mph - N/A   Scattered Clouds
2:00 PM 76 °F - 43 °F 20% 30.06 in - NW 17.3 mph - -  
2:00 PM 75.2 °F - 42.8 °F 31% 30.06 in 5.6 mi NW 17.3 mph - N/A   Scattered Clouds
2:30 PM 78.8 °F - 44.6 °F 30% 30.06 in - NNW 17.3 mph - N/A   Clear
3:00 PM 80 °F - 43 °F 17% 30.04 in - NW 17.3 mph - -  
3:00 PM 80.6 °F - 42.8 °F 26% 30.04 in - NW 17.3 mph - N/A   Clear
3:30 PM 78.8 °F - 41.0 °F 26% 30.04 in - NW 16.1 mph - N/A   Clear
4:00 PM 80.6 °F - 44.6 °F 28% 30.01 in - NNW 13.8 mph - N/A   Clear
4:30 PM 80.6 °F - 42.8 °F 26% 30.01 in - NW 13.8 mph - N/A   Clear
5:00 PM 80 °F - 41 °F 15% 30.00 in - WNW 15.0 mph - -  
5:00 PM 78.8 °F - 41.0 °F 26% 30.01 in - WNW 15.0 mph - N/A   Clear
5:30 PM 78.8 °F - 41.0 °F 26% 30.01 in - WNW 12.7 mph - N/A   Clear
6:00 PM 78 °F - 41 °F 16% 30.00 in - WNW 11.5 mph - -  
6:00 PM 78.8 °F - 41.0 °F 26% 30.01 in - WNW 11.5 mph - N/A   Clear
6:30 PM 77.0 °F - 41.0 °F 28% 30.01 in 6.2 mi WNW 10.4 mph - N/A   Unknown
7:00 PM 73.4 °F - 39.2 °F 29% 30.01 in 6.2 mi NW 11.5 mph - N/A   Unknown
7:30 PM 68.0 °F - 39.2 °F 35% 30.01 in 6.2 mi NW 9.2 mph - N/A   Unknown
8:00 PM 67 °F - 40 °F 25% 30.02 in - North 8.1 mph - -  
8:00 PM 66.2 °F - 39.2 °F 37% 30.04 in 6.2 mi North 8.1 mph - N/A   Unknown
8:30 PM 59.0 °F - 37.4 °F 45% 30.04 in 6.2 mi ENE 3.5 mph - N/A   Unknown
9:00 PM 60 °F - 40 °F 36% 30.04 in - East 4.6 mph - -  
9:00 PM 59.0 °F - 41.0 °F 51% 30.04 in 6.2 mi East 4.6 mph - N/A   Unknown
9:30 PM 60.8 °F - 41.0 °F 48% 30.06 in 6.2 mi East 2.3 mph - N/A   Unknown
10:00 PM 57.2 °F - 41.0 °F 55% 30.06 in 6.2 mi SSE 3.5 mph - N/A   Unknown
10:30 PM 51.8 °F - 39.2 °F 62% 30.06 in 6.2 mi SE 5.8 mph - N/A   Unknown
11:00 PM 52 °F - 40 °F 54% 30.05 in - SE 5.8 mph - -  
11:00 PM 51.8 °F - 41.0 °F 67% 30.06 in 6.2 mi SE 5.8 mph - N/A   Unknown
11:30 PM 51.8 °F - 39.2 °F 62% 30.06 in 6.2 mi SE 3.5 mph - N/A   Unknown